Voltar ao catálogo

STARLINK-2298

AtivoComunicaçõesVLEO
NORAD 48022·PAYLOAD·🇺🇸 United States

Lançado Mar 24, 2021 de Cape Canaveral Space Force Station

Loading…

Próximas Passagens (próximas 24 horas)

TLE

AtualizadoSource: CelesTrak SupGP

Época: Sep 14, 2026, 21:13 UTC

1 48022C 21024AX  26257.88451389  .00104460  00000+0  50602-3 0  2570
2 48022  53.1134 137.2364 0004123 141.1519 173.8158 15.81730742    15

Acompanhe STARLINK-2298 em tempo real com AllMySat

Download on the App Store